Year,Month,Day,Hour,Minute,Value (Times are PST for temperature in C)
2019,03,02,00,00,-1.70
2019,03,02,00,01,-1.70
2019,03,02,00,02,-1.70
2019,03,02,00,03,-1.70
2019,03,02,00,04,-1.70
2019,03,02,00,05,-1.70
2019,03,02,00,06,-1.70
2019,03,02,00,07,-1.70
2019,03,02,00,08,-1.70
2019,03,02,00,09,-1.70
2019,03,02,00,10,-1.70
2019,03,02,00,11,-1.70
2019,03,02,00,12,-1.70
2019,03,02,00,13,-1.70
2019,03,02,00,14,-1.70
2019,03,02,00,15,-1.80
2019,03,02,00,16,-1.80
2019,03,02,00,17,-1.80
2019,03,02,00,18,-1.80
2019,03,02,00,19,-1.80
2019,03,02,00,20,-1.80
2019,03,02,00,21,-1.80
2019,03,02,00,22,-1.80
2019,03,02,00,23,-1.80
2019,03,02,00,24,-1.80
2019,03,02,00,25,-1.80
2019,03,02,00,26,-1.80
2019,03,02,00,27,-1.80
2019,03,02,00,28,-1.80
2019,03,02,00,29,-1.80
2019,03,02,00,30,-1.80
2019,03,02,00,31,-1.90
2019,03,02,00,32,-1.90
2019,03,02,00,33,-1.90
2019,03,02,00,34,-1.90
2019,03,02,00,35,-1.90
2019,03,02,00,36,-1.90
2019,03,02,00,37,-1.90
2019,03,02,00,38,-1.90
2019,03,02,00,39,-1.90
2019,03,02,00,40,-1.90
2019,03,02,00,41,-1.90
2019,03,02,00,42,-1.90
2019,03,02,00,43,-1.90
2019,03,02,00,44,-2.00
2019,03,02,00,45,-2.00
2019,03,02,00,46,-2.00
2019,03,02,00,47,-2.00
2019,03,02,00,48,-2.00
2019,03,02,00,49,-2.00
2019,03,02,00,50,-2.00
2019,03,02,00,51,-2.00
2019,03,02,00,52,-2.00
2019,03,02,00,53,-2.10
2019,03,02,00,54,-2.10
2019,03,02,00,55,-2.10
2019,03,02,00,56,-2.10
2019,03,02,00,57,-2.10
2019,03,02,00,58,-2.10
2019,03,02,00,59,-2.10
2019,03,02,01,00,-2.10
2019,03,02,01,01,-2.10
2019,03,02,01,02,-2.10
2019,03,02,01,03,-2.10
2019,03,02,01,04,-2.10
2019,03,02,01,05,-2.10
2019,03,02,01,06,-2.20
2019,03,02,01,07,-2.20
2019,03,02,01,08,-2.20
2019,03,02,01,09,-2.20
2019,03,02,01,10,-2.20
2019,03,02,01,11,-2.20
2019,03,02,01,12,-2.20
2019,03,02,01,13,-2.20
2019,03,02,01,14,-2.20
2019,03,02,01,15,-2.20
2019,03,02,01,16,-2.20
2019,03,02,01,17,-2.20
2019,03,02,01,18,-2.20
2019,03,02,01,19,-2.20
2019,03,02,01,20,-2.20
2019,03,02,01,21,-2.20
2019,03,02,01,22,-2.20
2019,03,02,01,23,-2.20
2019,03,02,01,24,-2.20
2019,03,02,01,25,-2.20
2019,03,02,01,26,-2.20
2019,03,02,01,27,-2.20
2019,03,02,01,28,-2.20
2019,03,02,01,29,-2.20
2019,03,02,01,30,-2.20
2019,03,02,01,31,-2.20
2019,03,02,01,32,-2.20
2019,03,02,01,33,-2.20
2019,03,02,01,34,-2.20
2019,03,02,01,35,-2.20
2019,03,02,01,36,-2.20
2019,03,02,01,37,-2.20
2019,03,02,01,38,-2.20
2019,03,02,01,39,-2.20
2019,03,02,01,40,-2.20
2019,03,02,01,41,-2.20
2019,03,02,01,42,-2.20
2019,03,02,01,43,-2.20
2019,03,02,01,44,-2.20
2019,03,02,01,45,-2.20
2019,03,02,01,46,-2.20
2019,03,02,01,47,-2.20
2019,03,02,01,48,-2.20
2019,03,02,01,49,-2.20
2019,03,02,01,50,-2.20
2019,03,02,01,51,-2.20
2019,03,02,01,52,-2.30
2019,03,02,01,53,-2.30
2019,03,02,01,54,-2.30
2019,03,02,01,55,-2.30
2019,03,02,01,56,-2.30
2019,03,02,01,57,-2.30
2019,03,02,01,58,-2.30
2019,03,02,01,59,-2.30
2019,03,02,02,00,-2.30
2019,03,02,02,01,-2.30
2019,03,02,02,02,-2.30
2019,03,02,02,03,-2.30
2019,03,02,02,04,-2.30
2019,03,02,02,05,-2.30
2019,03,02,02,06,-2.30
2019,03,02,02,07,-2.30
2019,03,02,02,08,-2.30
2019,03,02,02,09,-2.30
2019,03,02,02,10,-2.30
2019,03,02,02,11,-2.30
2019,03,02,02,12,-2.30
2019,03,02,02,13,-2.40
2019,03,02,02,14,-2.40
2019,03,02,02,15,-2.40
2019,03,02,02,16,-2.40
2019,03,02,02,17,-2.40
2019,03,02,02,18,-2.40
2019,03,02,02,19,-2.40
2019,03,02,02,20,-2.40
2019,03,02,02,21,-2.40
2019,03,02,02,22,-2.40
2019,03,02,02,23,-2.40
2019,03,02,02,24,-2.40
2019,03,02,02,25,-2.40
2019,03,02,02,26,-2.40
2019,03,02,02,27,-2.40
2019,03,02,02,28,-2.40
2019,03,02,02,29,-2.40
2019,03,02,02,30,-2.50
2019,03,02,02,31,-2.50
2019,03,02,02,32,-2.50
2019,03,02,02,33,-2.50
2019,03,02,02,34,-2.50
2019,03,02,02,35,-2.60
2019,03,02,02,36,-2.60
2019,03,02,02,37,-2.60
2019,03,02,02,38,-2.60
2019,03,02,02,39,-2.60
2019,03,02,02,40,-2.60
2019,03,02,02,41,-2.60
2019,03,02,02,42,-2.60
2019,03,02,02,43,-2.70
2019,03,02,02,44,-2.70
2019,03,02,02,45,-2.70
2019,03,02,02,46,-2.70
2019,03,02,02,47,-2.70
2019,03,02,02,48,-2.70
2019,03,02,02,49,-2.70
2019,03,02,02,50,-2.70
2019,03,02,02,51,-2.70
2019,03,02,02,52,-2.70
2019,03,02,02,53,-2.70
2019,03,02,02,54,-2.70
2019,03,02,02,55,-2.70
2019,03,02,02,56,-2.70
2019,03,02,02,57,-2.70
2019,03,02,02,58,-2.70
2019,03,02,02,59,-2.70
2019,03,02,03,00,-2.70
2019,03,02,03,01,-2.70
2019,03,02,03,02,-2.70
2019,03,02,03,03,-2.70
2019,03,02,03,04,-2.70
2019,03,02,03,05,-2.70
2019,03,02,03,06,-2.70
2019,03,02,03,07,-2.70
2019,03,02,03,08,-2.70
2019,03,02,03,09,-2.70
2019,03,02,03,10,-2.70
2019,03,02,03,11,-2.70
2019,03,02,03,12,-2.70
2019,03,02,03,13,-2.70
2019,03,02,03,14,-2.70
2019,03,02,03,15,-2.70
2019,03,02,03,16,-2.80
2019,03,02,03,17,-2.80
2019,03,02,03,18,-2.80
2019,03,02,03,19,-2.80
2019,03,02,03,20,-2.80
2019,03,02,03,21,-2.80
2019,03,02,03,22,-2.80
2019,03,02,03,23,-2.80
2019,03,02,03,24,-2.80
2019,03,02,03,25,-2.80
2019,03,02,03,26,-2.80
2019,03,02,03,27,-2.80
2019,03,02,03,28,-2.80
2019,03,02,03,29,-2.90
2019,03,02,03,30,-2.90
2019,03,02,03,31,-2.90
2019,03,02,03,32,-2.90
2019,03,02,03,33,-2.90
2019,03,02,03,34,-2.90
2019,03,02,03,35,-2.90
2019,03,02,03,36,-2.90
2019,03,02,03,37,-2.90
2019,03,02,03,38,-2.90
2019,03,02,03,39,-2.90
2019,03,02,03,40,-3.00
2019,03,02,03,41,-3.00
2019,03,02,03,42,-3.00
2019,03,02,03,43,-3.00
2019,03,02,03,44,-3.00
2019,03,02,03,45,-3.00
2019,03,02,03,46,-3.00
2019,03,02,03,47,-3.00
2019,03,02,03,48,-3.00
2019,03,02,03,49,-3.00
2019,03,02,03,50,-3.00
2019,03,02,03,51,-3.10
2019,03,02,03,52,-3.10
2019,03,02,03,53,-3.10
2019,03,02,03,54,-3.10
2019,03,02,03,55,-3.10
2019,03,02,03,56,-3.10
2019,03,02,03,57,-3.10
2019,03,02,03,58,-3.10
2019,03,02,03,59,-3.10
2019,03,02,04,00,-3.10
2019,03,02,04,01,-3.10
2019,03,02,04,02,-3.10
2019,03,02,04,03,-3.10
2019,03,02,04,04,-3.10
2019,03,02,04,05,-3.10
2019,03,02,04,06,-3.20
2019,03,02,04,07,-3.20
2019,03,02,04,08,-3.20
2019,03,02,04,09,-3.20
2019,03,02,04,10,-3.20
2019,03,02,04,11,-3.20
2019,03,02,04,12,-3.20
2019,03,02,04,13,-3.20
2019,03,02,04,14,-3.20
2019,03,02,04,15,-3.20
2019,03,02,04,16,-3.20
2019,03,02,04,17,-3.20
2019,03,02,04,18,-3.20
2019,03,02,04,19,-3.20
2019,03,02,04,20,-3.10
2019,03,02,04,21,-3.10
2019,03,02,04,22,-3.10
2019,03,02,04,23,-3.10
2019,03,02,04,24,-3.10
2019,03,02,04,25,-3.10
2019,03,02,04,26,-3.10
2019,03,02,04,27,-3.10
2019,03,02,04,28,-3.20
2019,03,02,04,29,-3.20
2019,03,02,04,30,-3.20
2019,03,02,04,31,-3.20
2019,03,02,04,32,-3.20
2019,03,02,04,33,-3.20
2019,03,02,04,34,-3.20
2019,03,02,04,35,-3.20
2019,03,02,04,36,-3.20
2019,03,02,04,37,-3.20
2019,03,02,04,38,-3.20
2019,03,02,04,39,-3.20
2019,03,02,04,40,-3.20
2019,03,02,04,41,-3.20
2019,03,02,04,42,-3.20
2019,03,02,04,43,-3.20
2019,03,02,04,44,-3.20
2019,03,02,04,45,-3.20
2019,03,02,04,46,-3.20
2019,03,02,04,47,-3.20
2019,03,02,04,48,-3.20
2019,03,02,04,49,-3.20
2019,03,02,04,50,-3.20
2019,03,02,04,51,-3.20
2019,03,02,04,52,-3.20
2019,03,02,04,53,-3.20
2019,03,02,04,54,-3.20
2019,03,02,04,55,-3.20
2019,03,02,04,56,-3.20
2019,03,02,04,57,-3.30
2019,03,02,04,58,-3.30
2019,03,02,04,59,-3.30
2019,03,02,05,00,-3.30
2019,03,02,05,01,-3.30
2019,03,02,05,02,-3.30
2019,03,02,05,03,-3.30
2019,03,02,05,04,-3.30
2019,03,02,05,05,-3.30
2019,03,02,05,06,-3.30
2019,03,02,05,07,-3.30
2019,03,02,05,08,-3.30
2019,03,02,05,09,-3.30
2019,03,02,05,10,-3.30
2019,03,02,05,11,-3.30
2019,03,02,05,12,-3.30
2019,03,02,05,13,-3.30
2019,03,02,05,14,-3.30
2019,03,02,05,15,-3.30
2019,03,02,05,16,-3.30
2019,03,02,05,17,-3.30
2019,03,02,05,18,-3.30
2019,03,02,05,19,-3.30
2019,03,02,05,20,-3.40
2019,03,02,05,21,-3.40
2019,03,02,05,22,-3.40
2019,03,02,05,23,-3.40
2019,03,02,05,24,-3.40
2019,03,02,05,25,-3.40
2019,03,02,05,26,-3.40
2019,03,02,05,27,-3.40
2019,03,02,05,28,-3.40
2019,03,02,05,29,-3.40
2019,03,02,05,30,-3.40
2019,03,02,05,31,-3.50
2019,03,02,05,32,-3.50
2019,03,02,05,33,-3.50
2019,03,02,05,34,-3.50
2019,03,02,05,35,-3.60
2019,03,02,05,36,-3.60
2019,03,02,05,37,-3.60
2019,03,02,05,38,-3.60
2019,03,02,05,39,-3.60
2019,03,02,05,40,-3.60
2019,03,02,05,41,-3.60
2019,03,02,05,42,-3.60
2019,03,02,05,43,-3.60
2019,03,02,05,44,-3.60
2019,03,02,05,45,-3.60
2019,03,02,05,46,-3.60
2019,03,02,05,47,-3.60
2019,03,02,05,48,-3.60
2019,03,02,05,49,-3.60
2019,03,02,05,50,-3.60
2019,03,02,05,51,-3.60
2019,03,02,05,52,-3.60
2019,03,02,05,53,-3.70
2019,03,02,05,54,-3.70
2019,03,02,05,55,-3.70
2019,03,02,05,56,-3.70
2019,03,02,05,57,-3.70
2019,03,02,05,58,-3.70
2019,03,02,05,59,-3.70
2019,03,02,06,00,-3.70
2019,03,02,06,01,-3.70
2019,03,02,06,02,-3.80
2019,03,02,06,03,-3.70
2019,03,02,06,04,-3.70
2019,03,02,06,05,-3.70
2019,03,02,06,06,-3.70
2019,03,02,06,07,-3.70
2019,03,02,06,08,-3.70
2019,03,02,06,09,-3.70
2019,03,02,06,10,-3.70
2019,03,02,06,11,-3.70
2019,03,02,06,12,-3.70
2019,03,02,06,13,-3.70
2019,03,02,06,14,-3.70
2019,03,02,06,15,-3.70
2019,03,02,06,16,-3.70
2019,03,02,06,17,-3.70
2019,03,02,06,18,-3.70
2019,03,02,06,19,-3.70
2019,03,02,06,20,-3.70
2019,03,02,06,21,-3.70
2019,03,02,06,22,-3.70
2019,03,02,06,23,-3.70
2019,03,02,06,24,-3.70
2019,03,02,06,25,-3.70
2019,03,02,06,26,-3.70
2019,03,02,06,27,-3.70
2019,03,02,06,28,-3.80
2019,03,02,06,29,-3.80
2019,03,02,06,30,-3.80
2019,03,02,06,31,-3.80
2019,03,02,06,32,-3.80
2019,03,02,06,33,-3.80
2019,03,02,06,34,-3.80
2019,03,02,06,35,-3.80
2019,03,02,06,36,-3.80
2019,03,02,06,37,-3.80
2019,03,02,06,38,-3.80
2019,03,02,06,39,-3.80
2019,03,02,06,40,-3.80
2019,03,02,06,41,-3.80
2019,03,02,06,42,-3.80
2019,03,02,06,43,-3.80
2019,03,02,06,44,-3.80
2019,03,02,06,45,-3.90
2019,03,02,06,46,-3.90
2019,03,02,06,47,-3.90
2019,03,02,06,48,-3.90
2019,03,02,06,49,-3.90
2019,03,02,06,50,-3.90
2019,03,02,06,51,-3.90
2019,03,02,06,52,-3.90
2019,03,02,06,53,-3.90
2019,03,02,06,54,-3.90
2019,03,02,06,55,-3.90
2019,03,02,06,56,-3.90
2019,03,02,06,57,-3.90
2019,03,02,06,58,-4.00
2019,03,02,06,59,-4.00
2019,03,02,07,00,-4.00
2019,03,02,07,01,-4.00
2019,03,02,07,02,-4.00
2019,03,02,07,03,-4.00
2019,03,02,07,04,-3.90
2019,03,02,07,05,-3.90
2019,03,02,07,06,-3.90
2019,03,02,07,07,-3.90
2019,03,02,07,08,-3.90
2019,03,02,07,09,-3.90
2019,03,02,07,10,-3.90
2019,03,02,07,11,-3.90
2019,03,02,07,12,-3.90
2019,03,02,07,13,-3.90
2019,03,02,07,14,-3.80
2019,03,02,07,15,-3.80
2019,03,02,07,16,-3.80
2019,03,02,07,17,-3.80
2019,03,02,07,18,-3.90
2019,03,02,07,19,-3.80
2019,03,02,07,20,-3.80
2019,03,02,07,21,-3.80
2019,03,02,07,22,-3.80
2019,03,02,07,23,-3.80
2019,03,02,07,24,-3.80
2019,03,02,07,25,-3.80
2019,03,02,07,26,-3.80
2019,03,02,07,27,-3.80
2019,03,02,07,28,-3.80
2019,03,02,07,29,-3.80
2019,03,02,07,30,-3.80
2019,03,02,07,31,-3.70
2019,03,02,07,32,-3.70
2019,03,02,07,33,-3.70
2019,03,02,07,34,-3.70
2019,03,02,07,35,-3.60
2019,03,02,07,36,-3.60
2019,03,02,07,37,-3.60
2019,03,02,07,38,-3.60
2019,03,02,07,39,-3.60
2019,03,02,07,40,-3.50
2019,03,02,07,41,-3.50
2019,03,02,07,42,-3.40
2019,03,02,07,43,-3.40
2019,03,02,07,44,-3.40
2019,03,02,07,45,-3.40
2019,03,02,07,46,-3.40
2019,03,02,07,47,-3.30
2019,03,02,07,48,-3.30
2019,03,02,07,49,-3.30
2019,03,02,07,50,-3.30
2019,03,02,07,51,-3.30
2019,03,02,07,52,-3.20
2019,03,02,07,53,-3.20
2019,03,02,07,54,-3.20
2019,03,02,07,55,-3.20
2019,03,02,07,56,-3.10
2019,03,02,07,57,-3.10
2019,03,02,07,58,-3.10
2019,03,02,07,59,-3.00
2019,03,02,08,00,-3.00
2019,03,02,08,01,-2.90
2019,03,02,08,02,-2.90
2019,03,02,08,03,-2.90
2019,03,02,08,04,-2.90
2019,03,02,08,05,-2.80
2019,03,02,08,06,-2.80
2019,03,02,08,07,-2.80
2019,03,02,08,08,-2.70
2019,03,02,08,09,-2.70
2019,03,02,08,10,-2.70
2019,03,02,08,11,-2.70
2019,03,02,08,12,-2.60
2019,03,02,08,13,-2.60
2019,03,02,08,14,-2.60
2019,03,02,08,15,-2.50
2019,03,02,08,16,-2.50
2019,03,02,08,17,-2.40
2019,03,02,08,18,-2.40
2019,03,02,08,19,-2.30
2019,03,02,08,20,-2.30
2019,03,02,08,21,-2.30
2019,03,02,08,22,-2.20
2019,03,02,08,23,-2.10
2019,03,02,08,24,-2.10
2019,03,02,08,25,-2.00
2019,03,02,08,26,-1.90
2019,03,02,08,27,-1.80
2019,03,02,08,28,-1.80
2019,03,02,08,29,-1.60
2019,03,02,08,30,-1.60
2019,03,02,08,31,-1.40
2019,03,02,08,32,-1.30
2019,03,02,08,33,-1.20
2019,03,02,08,34,-1.10
2019,03,02,08,35,-1.00
2019,03,02,08,36,-1.00
2019,03,02,08,37,-0.90
2019,03,02,08,38,-0.90
2019,03,02,08,39,-0.80
2019,03,02,08,40,-0.80
2019,03,02,08,41,-0.80
2019,03,02,08,42,-0.70
2019,03,02,08,43,-0.70
2019,03,02,08,44,-0.70
2019,03,02,08,45,-0.70
2019,03,02,08,46,-0.70
2019,03,02,08,47,-0.70
2019,03,02,08,48,-0.70
2019,03,02,08,49,-0.60
2019,03,02,08,50,-0.60
2019,03,02,08,51,-0.60
2019,03,02,08,52,-0.50
2019,03,02,08,53,-0.50
2019,03,02,08,54,-0.40
2019,03,02,08,55,-0.40
2019,03,02,08,56,-0.40
2019,03,02,08,57,-0.30
2019,03,02,08,58,-0.30
2019,03,02,08,59,-0.20
2019,03,02,09,00,-0.20
2019,03,02,09,01,-0.10
2019,03,02,09,02,0.00
2019,03,02,09,03,0.00
2019,03,02,09,04,0.10
2019,03,02,09,05,0.20
2019,03,02,09,06,0.30
2019,03,02,09,07,0.30
2019,03,02,09,08,0.40
2019,03,02,09,09,0.50
2019,03,02,09,10,0.60
2019,03,02,09,11,0.70
2019,03,02,09,12,0.70
2019,03,02,09,13,0.80
2019,03,02,09,14,0.90
2019,03,02,09,15,1.00
2019,03,02,09,16,1.10
2019,03,02,09,17,1.20
2019,03,02,09,18,1.30
2019,03,02,09,19,1.40
2019,03,02,09,20,1.40
2019,03,02,09,21,1.50
2019,03,02,09,22,1.50
2019,03,02,09,23,1.60
2019,03,02,09,24,1.70
2019,03,02,09,25,1.70
2019,03,02,09,26,1.80
2019,03,02,09,27,1.90
2019,03,02,09,28,2.00
2019,03,02,09,29,2.00
2019,03,02,09,30,2.10
2019,03,02,09,31,2.20
2019,03,02,09,32,2.30
2019,03,02,09,33,2.40
2019,03,02,09,34,2.40
2019,03,02,09,35,2.50
2019,03,02,09,36,2.60
2019,03,02,09,37,2.60
2019,03,02,09,38,2.70
2019,03,02,09,39,2.70
2019,03,02,09,40,2.80
2019,03,02,09,41,2.90
2019,03,02,09,42,3.00
2019,03,02,09,43,3.00
2019,03,02,09,44,3.10
2019,03,02,09,45,3.20
2019,03,02,09,46,3.30
2019,03,02,09,47,3.30
2019,03,02,09,48,3.40
2019,03,02,09,49,3.50
2019,03,02,09,50,3.50
2019,03,02,09,51,3.60
2019,03,02,09,52,3.70
2019,03,02,09,53,3.70
2019,03,02,09,54,3.80
2019,03,02,09,55,3.80
2019,03,02,09,56,3.80
2019,03,02,09,57,3.80
2019,03,02,09,58,3.80
2019,03,02,09,59,3.80
2019,03,02,10,00,3.80
2019,03,02,10,01,3.80
2019,03,02,10,02,3.90
2019,03,02,10,03,3.90
2019,03,02,10,04,3.90
2019,03,02,10,05,3.90
2019,03,02,10,06,3.90
2019,03,02,10,07,3.90
2019,03,02,10,08,4.00
2019,03,02,10,09,4.00
2019,03,02,10,10,4.10
2019,03,02,10,11,4.10
2019,03,02,10,12,4.10
2019,03,02,10,13,4.10
2019,03,02,10,14,4.10
2019,03,02,10,15,4.10
2019,03,02,10,16,4.20
2019,03,02,10,17,4.20
2019,03,02,10,18,4.20
2019,03,02,10,19,4.30
2019,03,02,10,20,4.30
2019,03,02,10,21,4.30
2019,03,02,10,22,4.40
2019,03,02,10,23,4.30
2019,03,02,10,24,4.40
2019,03,02,10,25,4.40
2019,03,02,10,26,4.40
2019,03,02,10,27,4.40
2019,03,02,10,28,4.40
2019,03,02,10,29,4.40
2019,03,02,10,30,4.40
2019,03,02,10,31,4.40
2019,03,02,10,32,4.40
2019,03,02,10,33,4.50
2019,03,02,10,34,4.50
2019,03,02,10,35,4.60
2019,03,02,10,36,4.60
2019,03,02,10,37,4.60
2019,03,02,10,38,4.60
2019,03,02,10,39,4.70
2019,03,02,10,40,4.70
2019,03,02,10,41,4.70
2019,03,02,10,42,4.70
2019,03,02,10,43,4.80
2019,03,02,10,44,4.80
2019,03,02,10,45,4.80
2019,03,02,10,46,4.90
2019,03,02,10,47,4.90
2019,03,02,10,48,4.90
2019,03,02,10,49,5.00
2019,03,02,10,50,5.00
2019,03,02,10,51,5.00
2019,03,02,10,52,5.00
2019,03,02,10,53,5.00
2019,03,02,10,54,5.00
2019,03,02,10,55,5.00
2019,03,02,10,56,5.00
2019,03,02,10,57,5.00
2019,03,02,10,58,5.00
2019,03,02,10,59,5.10
2019,03,02,11,00,5.10
2019,03,02,11,01,5.20
2019,03,02,11,02,5.30
2019,03,02,11,03,5.40
2019,03,02,11,04,5.50
2019,03,02,11,05,5.60
2019,03,02,11,06,5.70
2019,03,02,11,07,5.70
2019,03,02,11,08,5.70
2019,03,02,11,09,5.70
2019,03,02,11,10,5.70
2019,03,02,11,11,5.70
2019,03,02,11,12,5.70
2019,03,02,11,13,5.70
2019,03,02,11,14,5.70
2019,03,02,11,15,5.70
2019,03,02,11,16,5.70
2019,03,02,11,17,5.70
2019,03,02,11,18,5.70
2019,03,02,11,19,5.70
2019,03,02,11,20,5.70
2019,03,02,11,21,5.70
2019,03,02,11,22,5.70
2019,03,02,11,23,5.80
2019,03,02,11,24,5.80
2019,03,02,11,25,5.90
2019,03,02,11,26,5.90
2019,03,02,11,27,5.90
2019,03,02,11,28,5.90
2019,03,02,11,29,5.90
2019,03,02,11,30,5.90
2019,03,02,11,31,6.00
2019,03,02,11,32,6.00
2019,03,02,11,33,6.00
2019,03,02,11,34,6.00
2019,03,02,11,35,5.90
2019,03,02,11,36,5.90
2019,03,02,11,37,5.90
2019,03,02,11,38,5.90
2019,03,02,11,39,5.90
2019,03,02,11,40,6.00
2019,03,02,11,41,6.00
2019,03,02,11,42,6.00
2019,03,02,11,43,6.10
2019,03,02,11,44,6.10
2019,03,02,11,45,6.20
2019,03,02,11,46,6.20
2019,03,02,11,47,6.30
2019,03,02,11,48,6.30
2019,03,02,11,49,6.30
2019,03,02,11,50,6.40
2019,03,02,11,51,6.40
2019,03,02,11,52,6.50
2019,03,02,11,53,6.50
2019,03,02,11,54,6.40
2019,03,02,11,55,6.40
2019,03,02,11,56,6.40
2019,03,02,11,57,6.40
2019,03,02,11,58,6.40
2019,03,02,11,59,6.40
2019,03,02,12,00,6.40
2019,03,02,12,01,6.40
2019,03,02,12,02,6.30
2019,03,02,12,03,6.30
2019,03,02,12,04,6.20
2019,03,02,12,05,6.20
2019,03,02,12,06,6.20
2019,03,02,12,07,6.20
2019,03,02,12,08,6.20
2019,03,02,12,09,6.20
2019,03,02,12,10,6.20
2019,03,02,12,11,6.20
2019,03,02,12,12,6.20
2019,03,02,12,13,6.20
2019,03,02,12,14,6.30
2019,03,02,12,15,6.20
2019,03,02,12,16,6.20
2019,03,02,12,17,6.20
2019,03,02,12,18,6.10
2019,03,02,12,19,6.10
2019,03,02,12,20,6.10
2019,03,02,12,21,6.10
2019,03,02,12,22,6.10
2019,03,02,12,23,6.10
2019,03,02,12,24,6.20
2019,03,02,12,25,6.20
2019,03,02,12,26,6.20
2019,03,02,12,27,6.20
2019,03,02,12,28,6.30
2019,03,02,12,29,6.30
2019,03,02,12,30,6.30
2019,03,02,12,31,6.30
2019,03,02,12,32,6.40
2019,03,02,12,33,6.40
2019,03,02,12,34,6.40
2019,03,02,12,35,6.40
2019,03,02,12,36,6.40
2019,03,02,12,37,6.40
2019,03,02,12,38,6.40
2019,03,02,12,39,6.40
2019,03,02,12,40,6.40
2019,03,02,12,41,6.40
2019,03,02,12,42,6.40
2019,03,02,12,43,6.40
2019,03,02,12,44,6.40
2019,03,02,12,45,6.40
2019,03,02,12,46,6.40
2019,03,02,12,47,6.40
2019,03,02,12,48,6.40
2019,03,02,12,49,6.30
2019,03,02,12,50,6.30
2019,03,02,12,51,6.30
2019,03,02,12,52,6.40
2019,03,02,12,53,6.40
2019,03,02,12,54,6.40
2019,03,02,12,55,6.40
2019,03,02,12,56,6.40
2019,03,02,12,57,6.40
2019,03,02,12,58,6.40
2019,03,02,12,59,6.50
2019,03,02,13,00,6.50
2019,03,02,13,01,6.50
2019,03,02,13,02,6.50
2019,03,02,13,03,6.60
2019,03,02,13,04,6.60
2019,03,02,13,05,6.60
2019,03,02,13,06,6.70
2019,03,02,13,07,6.70
2019,03,02,13,08,6.70
2019,03,02,13,09,6.70
2019,03,02,13,10,6.70
2019,03,02,13,11,6.70
2019,03,02,13,12,6.60
2019,03,02,13,13,6.60
2019,03,02,13,14,6.60
2019,03,02,13,15,6.60
2019,03,02,13,16,6.60
2019,03,02,13,17,6.70
2019,03,02,13,18,6.80
2019,03,02,13,19,6.80
2019,03,02,13,20,6.70
2019,03,02,13,21,6.70
2019,03,02,13,22,6.70
2019,03,02,13,23,6.70
2019,03,02,13,24,6.70
2019,03,02,13,25,6.70
2019,03,02,13,26,6.70
2019,03,02,13,27,6.70
2019,03,02,13,28,6.80
2019,03,02,13,29,6.80
2019,03,02,13,30,6.80
2019,03,02,13,31,6.90
2019,03,02,13,32,6.90
2019,03,02,13,33,6.90
2019,03,02,13,34,6.90
2019,03,02,13,35,6.90
2019,03,02,13,36,6.90
2019,03,02,13,37,6.90
2019,03,02,13,38,6.90
2019,03,02,13,39,6.90
2019,03,02,13,40,7.00
2019,03,02,13,41,7.00
2019,03,02,13,42,7.00
2019,03,02,13,43,7.00
2019,03,02,13,44,7.00
2019,03,02,13,45,7.00
2019,03,02,13,46,7.10
2019,03,02,13,47,7.10
2019,03,02,13,48,7.10
2019,03,02,13,49,7.00
2019,03,02,13,50,7.00
2019,03,02,13,51,7.00
2019,03,02,13,52,7.00
2019,03,02,13,53,7.00
2019,03,02,13,54,7.10
2019,03,02,13,55,7.10
2019,03,02,13,56,7.20
2019,03,02,13,57,7.30
2019,03,02,13,58,7.30
2019,03,02,13,59,7.30
2019,03,02,14,00,7.30
2019,03,02,14,01,7.30
2019,03,02,14,02,7.30
2019,03,02,14,03,7.30
2019,03,02,14,04,7.30
2019,03,02,14,05,7.30
2019,03,02,14,06,7.30
2019,03,02,14,07,7.40
2019,03,02,14,08,7.40
2019,03,02,14,09,7.40
2019,03,02,14,10,7.40
2019,03,02,14,11,7.40
2019,03,02,14,12,7.40
2019,03,02,14,13,7.40
2019,03,02,14,14,7.30
2019,03,02,14,15,7.30
2019,03,02,14,16,7.30
2019,03,02,14,17,7.30
2019,03,02,14,18,7.30
2019,03,02,14,19,7.30
2019,03,02,14,20,7.40
2019,03,02,14,21,7.40
2019,03,02,14,22,7.40
2019,03,02,14,23,7.40
2019,03,02,14,24,7.40
2019,03,02,14,25,7.40
2019,03,02,14,26,7.40
2019,03,02,14,27,7.40
2019,03,02,14,28,7.40
2019,03,02,14,29,7.40
2019,03,02,14,30,7.40
2019,03,02,14,31,7.40
2019,03,02,14,32,7.40
2019,03,02,14,33,7.40
2019,03,02,14,34,7.40
2019,03,02,14,35,7.40
2019,03,02,14,36,7.40
2019,03,02,14,37,7.40
2019,03,02,14,38,7.40
2019,03,02,14,39,7.40
2019,03,02,14,40,7.40
2019,03,02,14,41,7.40
2019,03,02,14,42,7.30
2019,03,02,14,43,7.30
2019,03,02,14,44,7.30
2019,03,02,14,45,7.30
2019,03,02,14,46,7.30
2019,03,02,14,47,7.30
2019,03,02,14,48,7.30
2019,03,02,14,49,7.30
2019,03,02,14,50,7.30
2019,03,02,14,51,7.30
2019,03,02,14,52,7.30
2019,03,02,14,53,7.40
2019,03,02,14,54,7.50
2019,03,02,14,55,7.60
2019,03,02,14,56,7.70
2019,03,02,14,57,7.70
2019,03,02,14,58,7.70
2019,03,02,14,59,7.70
2019,03,02,15,00,7.70
2019,03,02,15,01,7.70
2019,03,02,15,02,7.70
2019,03,02,15,03,7.60
2019,03,02,15,04,7.60
2019,03,02,15,05,7.70
2019,03,02,15,06,7.70
2019,03,02,15,07,7.70
2019,03,02,15,08,7.70
2019,03,02,15,09,7.70
2019,03,02,15,10,7.70
2019,03,02,15,11,7.80
2019,03,02,15,12,7.80
2019,03,02,15,13,7.80
2019,03,02,15,14,7.80
2019,03,02,15,15,7.80
2019,03,02,15,16,7.80
2019,03,02,15,17,7.80
2019,03,02,15,18,7.90
2019,03,02,15,19,7.90
2019,03,02,15,20,7.90
2019,03,02,15,21,7.80
2019,03,02,15,22,7.80
2019,03,02,15,23,7.80
2019,03,02,15,24,7.80
2019,03,02,15,25,7.90
2019,03,02,15,26,7.90
2019,03,02,15,27,7.90
2019,03,02,15,28,7.90
2019,03,02,15,29,7.90
2019,03,02,15,30,7.90
2019,03,02,15,31,7.90
2019,03,02,15,32,7.80
2019,03,02,15,33,7.80
2019,03,02,15,34,7.80
2019,03,02,15,35,7.80
2019,03,02,15,36,7.80
2019,03,02,15,37,7.80
2019,03,02,15,38,7.70
2019,03,02,15,39,7.70
2019,03,02,15,40,7.70
2019,03,02,15,41,7.70
2019,03,02,15,42,7.70
2019,03,02,15,43,7.70
2019,03,02,15,44,7.70
2019,03,02,15,45,7.70
2019,03,02,15,46,7.70
2019,03,02,15,47,7.70
2019,03,02,15,48,7.70
2019,03,02,15,49,7.70
2019,03,02,15,50,7.70
2019,03,02,15,51,7.70
2019,03,02,15,52,7.70
2019,03,02,15,53,7.70
2019,03,02,15,54,7.70
2019,03,02,15,55,7.80
2019,03,02,15,56,7.80
2019,03,02,15,57,7.90
2019,03,02,15,58,7.90
2019,03,02,15,59,7.90
2019,03,02,16,00,7.90
2019,03,02,16,01,7.90
2019,03,02,16,02,7.90
2019,03,02,16,03,7.90
2019,03,02,16,04,7.90
2019,03,02,16,05,7.80
2019,03,02,16,06,7.80
2019,03,02,16,07,7.80
2019,03,02,16,08,7.70
2019,03,02,16,09,7.70
2019,03,02,16,10,7.70
2019,03,02,16,11,7.80
2019,03,02,16,12,7.80
2019,03,02,16,13,7.90
2019,03,02,16,14,8.00
2019,03,02,16,15,8.00
2019,03,02,16,16,8.00
2019,03,02,16,17,8.10
2019,03,02,16,18,8.10
2019,03,02,16,19,8.10
2019,03,02,16,20,8.10
2019,03,02,16,21,8.10
2019,03,02,16,22,8.10
2019,03,02,16,23,8.10
2019,03,02,16,24,8.00
2019,03,02,16,25,8.00
2019,03,02,16,26,8.00
2019,03,02,16,27,8.00
2019,03,02,16,28,8.00
2019,03,02,16,29,8.10
2019,03,02,16,30,8.10
2019,03,02,16,31,8.10
2019,03,02,16,32,8.10
2019,03,02,16,33,8.00
2019,03,02,16,34,8.00
2019,03,02,16,35,7.90
2019,03,02,16,36,8.00
2019,03,02,16,37,8.00
2019,03,02,16,38,8.00
2019,03,02,16,39,7.90
2019,03,02,16,40,7.90
2019,03,02,16,41,7.80
2019,03,02,16,42,7.70
2019,03,02,16,43,7.60
2019,03,02,16,44,7.60
2019,03,02,16,45,7.50
2019,03,02,16,46,7.50
2019,03,02,16,47,7.40
2019,03,02,16,48,7.40
2019,03,02,16,49,7.40
2019,03,02,16,50,7.40
2019,03,02,16,51,7.30
2019,03,02,16,52,7.30
2019,03,02,16,53,7.30
2019,03,02,16,54,7.30
2019,03,02,16,55,7.30
2019,03,02,16,56,7.30
2019,03,02,16,57,7.30
2019,03,02,16,58,7.20
2019,03,02,16,59,7.20
2019,03,02,17,00,7.20
2019,03,02,17,01,7.20
2019,03,02,17,02,7.30
2019,03,02,17,03,7.30
2019,03,02,17,04,7.30
2019,03,02,17,05,7.30
2019,03,02,17,06,7.30
2019,03,02,17,07,7.30
2019,03,02,17,08,7.20
2019,03,02,17,09,7.20
2019,03,02,17,10,7.20
2019,03,02,17,11,7.20
2019,03,02,17,12,7.10
2019,03,02,17,13,7.10
2019,03,02,17,14,7.10
2019,03,02,17,15,7.00
2019,03,02,17,16,7.00
2019,03,02,17,17,7.00
2019,03,02,17,18,6.90
2019,03,02,17,19,6.90
2019,03,02,17,20,6.90
2019,03,02,17,21,6.80
2019,03,02,17,22,6.80
2019,03,02,17,23,6.80
2019,03,02,17,24,6.80
2019,03,02,17,25,6.80
2019,03,02,17,26,6.80
2019,03,02,17,27,6.70
2019,03,02,17,28,6.70
2019,03,02,17,29,6.70
2019,03,02,17,30,6.70
2019,03,02,17,31,6.70
2019,03,02,17,32,6.70
2019,03,02,17,33,6.70
2019,03,02,17,34,6.70
2019,03,02,17,35,6.70
2019,03,02,17,36,6.70
2019,03,02,17,37,6.70
2019,03,02,17,38,6.60
2019,03,02,17,39,6.60
2019,03,02,17,40,6.60
2019,03,02,17,41,6.60
2019,03,02,17,42,6.60